TimeEST,TemperatureF,Dew PointF,Humidity,Sea Level PressureIn,VisibilityMPH,Wind Direction,Wind SpeedMPH,Gust SpeedMPH,PrecipitationIn,Events,Conditions,WindDirDegrees,DateUTC
12:03 AM,21.2,17.6,86,30.01,2.0,Calm,Calm,-,0.00,Snow,Light Snow,0,2013-02-03 05:03:00
12:14 AM,21.2,17.6,86,30.01,3.0,Calm,Calm,-,0.00,Snow,Light Snow,0,2013-02-03 05:14:00
12:22 AM,21.2,17.6,86,30.00,2.0,Calm,Calm,-,0.00,Snow,Light Snow,0,2013-02-03 05:22:00
12:53 AM,19.9,17.1,89,30.01,2.0,Calm,Calm,-,0.00,Snow,Light Snow,0,2013-02-03 05:53:00
1:06 AM,19.4,17.6,93,29.99,3.0,Calm,Calm,-,0.00,Snow,Light Snow,0,2013-02-03 06:06:00
1:53 AM,18.0,14.0,84,30.00,6.0,Calm,Calm,-,0.00,,Overcast,0,2013-02-03 06:53:00
2:53 AM,18.0,14.0,84,29.98,3.0,Calm,Calm,-,N/A,,Overcast,0,2013-02-03 07:53:00
3:49 AM,15.8,10.4,79,29.93,3.0,Calm,Calm,-,N/A,,Overcast,0,2013-02-03 08:49:00
3:53 AM,15.1,10.9,84,29.96,3.0,Calm,Calm,-,N/A,,Overcast,0,2013-02-03 08:53:00
4:53 AM,12.0,8.1,84,29.94,6.0,Calm,Calm,-,N/A,,Partly Cloudy,0,2013-02-03 09:53:00
5:17 AM,12.2,8.6,85,29.92,5.0,Calm,Calm,-,N/A,,Haze,0,2013-02-03 10:17:00
5:25 AM,12.2,8.6,85,29.92,5.0,Calm,Calm,-,N/A,,Overcast,0,2013-02-03 10:25:00
5:34 AM,12.2,8.6,85,29.91,5.0,Calm,Calm,-,N/A,,Overcast,0,2013-02-03 10:34:00
5:53 AM,14.0,10.0,84,29.94,6.0,Calm,Calm,-,N/A,,Overcast,0,2013-02-03 10:53:00
6:53 AM,15.1,12.0,88,29.94,6.0,Calm,Calm,-,N/A,,Overcast,0,2013-02-03 11:53:00
7:53 AM,18.0,15.1,88,29.95,4.0,Calm,Calm,-,N/A,,Overcast,0,2013-02-03 12:53:00
8:48 AM,19.4,15.8,86,29.92,5.0,Calm,Calm,-,N/A,,Overcast,0,2013-02-03 13:48:00
8:53 AM,19.9,16.0,85,29.94,5.0,Calm,Calm,-,N/A,,Overcast,0,2013-02-03 13:53:00
9:24 AM,19.4,17.6,93,29.92,5.0,Calm,Calm,-,N/A,,Overcast,0,2013-02-03 14:24:00
9:50 AM,19.4,15.8,86,29.92,4.0,Calm,Calm,-,N/A,,Overcast,0,2013-02-03 14:50:00
9:53 AM,19.9,16.0,85,29.94,4.0,Calm,Calm,-,N/A,,Overcast,0,2013-02-03 14:53:00
10:18 AM,21.2,17.6,86,29.91,1.8,Calm,Calm,-,N/A,,Overcast,0,2013-02-03 15:18:00
10:29 AM,21.2,15.8,80,29.91,1.0,North,4.6,-,N/A,,Haze,10,2013-02-03 15:29:00
10:39 AM,21.2,15.8,80,29.90,1.5,Calm,Calm,-,N/A,,Haze,0,2013-02-03 15:39:00
10:48 AM,21.2,15.8,80,29.90,2.5,NNE,3.5,-,N/A,,Haze,20,2013-02-03 15:48:00
10:53 AM,21.9,16.0,78,29.92,2.0,Calm,Calm,-,N/A,,Haze,0,2013-02-03 15:53:00
11:01 AM,21.2,17.6,86,29.90,1.5,Calm,Calm,-,N/A,,Haze,0,2013-02-03 16:01:00
11:07 AM,21.2,17.6,86,29.90,1.2,NNE,3.5,-,N/A,,Haze,20,2013-02-03 16:07:00
11:21 AM,23.0,17.6,80,29.89,2.0,Calm,Calm,-,N/A,,Haze,0,2013-02-03 16:21:00
11:31 AM,21.2,17.6,86,29.88,5.0,Calm,Calm,-,N/A,,Haze,0,2013-02-03 16:31:00
11:51 AM,23.0,15.8,74,29.87,7.0,Calm,Calm,-,N/A,,Overcast,0,2013-02-03 16:51:00
11:53 AM,23.0,16.0,74,29.89,7.0,Calm,Calm,-,N/A,,Overcast,0,2013-02-03 16:53:00
12:53 PM,24.1,16.0,71,29.85,10.0,WNW,3.5,-,N/A,,Overcast,300,2013-02-03 17:53:00
1:53 PM,25.0,15.1,66,29.82,10.0,West,6.9,-,N/A,,Overcast,280,2013-02-03 18:53:00
2:28 PM,24.8,15.8,69,29.79,10.0,SSW,4.6,-,N/A,,Scattered Clouds,210,2013-02-03 19:28:00
2:53 PM,26.1,15.1,63,29.81,10.0,SW,3.5,-,N/A,,Clear,230,2013-02-03 19:53:00
3:53 PM,27.0,14.0,58,29.80,10.0,Calm,Calm,-,N/A,,Partly Cloudy,0,2013-02-03 20:53:00
4:53 PM,26.1,14.0,60,29.80,10.0,SW,3.5,-,N/A,,Overcast,220,2013-02-03 21:53:00
5:53 PM,23.0,14.0,68,29.80,10.0,Calm,Calm,-,N/A,,Clear,0,2013-02-03 22:53:00
6:53 PM,19.9,15.1,81,29.81,8.0,Calm,Calm,-,N/A,,Partly Cloudy,0,2013-02-03 23:53:00
7:53 PM,19.0,14.0,81,29.81,9.0,Calm,Calm,-,N/A,,Mostly Cloudy,0,2013-02-04 00:53:00
8:53 PM,17.1,12.9,84,29.81,7.0,Calm,Calm,-,N/A,,Overcast,0,2013-02-04 01:53:00
9:53 PM,19.9,15.1,81,29.79,5.0,Calm,Calm,-,N/A,,Haze,0,2013-02-04 02:53:00
10:53 PM,19.0,16.0,88,29.79,8.0,Calm,Calm,-,0.00,,Overcast,0,2013-02-04 03:53:00
11:53 PM,21.9,17.1,82,29.80,5.0,Variable,3.5,-,0.00,Snow,Light Snow,0,2013-02-04 04:53:00